Impacts METAR Board INFO
IDs:

KJFK - New York/Kennedy Int, NY, US

Updated at: 2107 UTC 16 Jan 2018
Potential Impact None Slight Moderate High
Time16/09Z 16/10Z 16/11Z 16/12Z 16/13Z 16/14Z 16/15Z 16/16Z 16/17Z 16/18Z 16/19Z 16/20Z 16/21Z
VIS10 10 10 10 10 10 10 10 10 10 10 10 10
CIG11 9 13 14 34 35 33 34 33 70 31 30 30
CoverOVCOVCOVCBKNBKNOVCOVCOVCOVCBKNBKNBKNOVC
FltCatMVFRIFRMVFRMVFRVFRVFRVFRVFRVFRVFRVFRMVFRMVFR
WX--------------------------
WDir304030404080010080110110140100
WSpd7 8 7 3 7 3 0 5 3 7 5 7 5
WGst-- -- -- -- -- -- -- -- -- -- -- -- --
Raw hourly METARs
KJFK 160851Z 03007KT 10SM OVC011 M04/M06 A3052 RMK AO2 SLP334 T10391056 53004
KJFK 160951Z 04008KT 10SM OVC009 M04/M06 A3051 RMK AO2 SLP331 T10391056
KJFK 161051Z 03007KT 10SM OVC013 M03/M05 A3051 RMK AO2 SLP332 T10331050
KJFK 161151Z 04003KT 10SM BKN014 BKN220 M03/M05 A3053 RMK AO2 SLP338 T10331050 11033 21050 53004
KJFK 161251Z 04007KT 10SM SCT015 BKN034 BKN220 M03/M05 A3053 RMK AO2 SLP336 SCT V BKN T10281050
KJFK 161351Z 08003KT 10SM FEW016 OVC035 M02/M04 A3053 RMK AO2 SLP337 T10171044
KJFK 161451Z 00000KT 10SM FEW012 BKN033 BKN075 OVC200 M01/M03 A3052 RMK AO2 SLP335 T10061033 58003
KJFK 161551Z 10005KT 10SM FEW012 BKN034 OVC070 00/M02 A3051 RMK AO2 SLP330 T00001022
KJFK 161651Z 08003KT 10SM FEW015 BKN033 BKN070 OVC200 01/M02 A3048 RMK AO2 SLP321 T00111017
KJFK 161751Z 11007KT 10SM FEW017 SCT032 BKN070 BKN200 02/M02 A3045 RMK AO2 SLP311 T00221017 10022 21033 58023
KJFK 161851Z 11005KT 10SM FEW017 BKN031 BKN075 BKN200 03/M01 A3044 RMK AO2 SLP308 T00281011
KJFK 161951Z 14007KT 10SM FEW017 BKN030 BKN070 BKN250 04/00 A3044 RMK AO2 SLP306 T00390000
KJFK 162051Z 10005KT 10SM FEW017 BKN030 OVC070 03/01 A3043 RMK AO2 SLP302 T00280006 58009